Location: *
(33.8649°S, 62.1526°E)
Time: 11:25:22
(UTC+00:00)

Cosmos 1340 Rocket - Pass Details

Date: 17 January 2021
Orbit: 528 x 558 km, 81.2° (Epoch: 03 March)

Event Time Altitude Azimuth Distance (km) Brightness Sun altitude
Rises 22:37:03 0° 190° (S) 2,704 6.9 -24.2°
Reaches altitude 10° 22:39:13 10° 191° (S) 1,805 5.9 -23.9°
Enters shadow 22:42:34 61° 208° (SSW) 616 3.0 -23.5°
